Regional Weather Roundup
Issued by NWS

Home | Current Version | Previous Version | Graphics & Text | Print | Product List | Glossary On
Versions: 1 2 3 4 5 6 7 8 9 10 11 12 13 14 15 16 17 18 19 20 21 22 23 24 25 26 27 28 29 30 31 32 33 34 35 36 37 38 39 40 41 42 43 44 45 46 47 48 49 50
760
ASUS43 KLOT 220609
RWRIL

ILLINOIS REGIONAL WEATHER ROUNDUP
NATIONAL WEATHER SERVICE CHICAGO/ROMEOVILLE IL
100 AM CDT SAT JUL 22 2017

NOTE: "FAIR" INDICATES FEW OR NO CLOUDS BELOW 12,000 FEET WITH NO
SIGNIFICANT WEATHER AND/OR OBSTRUCTIONS TO VISIBILITY.

* THESE STATIONS ARE NOT UNDER NWS QUALITY CONTROL. THEY ALSO MAY NOT
  REPORT WEATHER SUCH AS PRECIPITATION OR FOG.

ILZ001-002-007-009-015-016-024-220700-
NORTHWEST ILLINOIS

CITY           SKY/WX    TMP DP  RH WIND       PRES   REMARKS
MOLINE         PTCLDY    76  72  87 E7        29.77F
6HR MIN TEMP:  72; 6HR MAX TEMP:  86; 6HR PCP:  0.56;

STERLING*      MOCLDY    70  69  97 NE7       29.80F
SAVANNA*       TSTM      70  69  96 NE6       29.87R
$$

ILZ003-004-008-010-011-017-018-220700-
NORTH CENTRAL ILLINOIS

CITY           SKY/WX    TMP DP  RH WIND       PRES   REMARKS
ROCKFORD       TSTM      74  69  85 N7        29.83F
6HR MIN TEMP:  73; 6HR MAX TEMP:  79; 6HR PCP:  0.91;

FREEPORT*      TSTM      68  68  99 SW12G22   29.87R VSB 1
ROCHELLE*      CLOUDY    70  69  96 NE6       29.80F
DE KALB*       CLOUDY    70  69  97 SE8       29.83F
PERU*          CLOUDY   N/A N/A N/A S7        29.82F
$$

ILZ005-006-012>014-019>023-220700-
NORTHEAST ILLINOIS

CITY           SKY/WX    TMP DP  RH WIND       PRES   REMARKS
CHICAGO-OHARE  LGT RAIN  72  69  90 S8        29.83F
6HR MIN TEMP:  73; 6HR MAX TEMP:  80; 6HR PCP:  0.49;

CHICAGO-MIDWAY TSTM      74  72  93 S10       29.84F FOG
6HR MIN TEMP:  73; 6HR MAX TEMP:  83; 6HR PCP:  1.20;

AURORA         LGT RAIN  70  70 100 S6        29.85S
6HR MIN TEMP:  70; 6HR MAX TEMP:  81; 6HR PCP:  1.01;

LANSING*       RAIN      72  69  92 S8        29.86F
JOLIET*        CLOUDY    73  72  99 E7        29.86F
WAUKEGAN       CLOUDY    72  71  97 S5        29.84R
6HR MIN TEMP:  71; 6HR MAX TEMP:  74; 6HR PCP:  0.33;

DUPAGE AIRPORT LGT RAIN  71  71 100 S6        29.84S FOG
6HR MIN TEMP:  70; 6HR MAX TEMP:  80; 6HR PCP:  0.35;

WHEELING       LGT RAIN  73  73 100 S9        29.85R
6HR MIN TEMP:  73; 6HR MAX TEMP:  77; 6HR PCP:  0.46;

MORRIS*        CLOUDY    70  69  96 E13       29.81F
ROMEOVILLE*    TSTM      71  68  91 S7        29.88R
NORTHERLY ISL    N/A     73  69  87 S10         N/A
$$

LMZ740>746-220700-
SOUTHERN LAKE MICHIGAN

STATION/POSITION SKY/WX   TEMP    WIND        PRES    VSBY  WAVE
                          AIR SEA DIR/SP/G                  HT/PER
                          (F)     (DEG/KT/KT) (MB)    (MI)  (FT/S)
SOUTHERN BUOY              72 70  100/ 12/ 14 1010.3F         1/ 3
WILMETTE HARBOR            74 73  200/ 16/ 19   N/A           2/ 3
HARRISON CRIB              74     190/ 18/ 19   N/A
BURNHAM HARBOR             73                   N/A
CALUMET HARBOR                    190/  6/ 11 1010.6F
BURNS HARBOR               73     190/ 11/ 18 1011.5F
MICHIGAN CITY              72     170/ 14/ 17   N/A
MICHIGAN CITY 6N           72 75  180/ 17/ 21   N/A           2/ 2
ST. JOSEPH                 73 77  170/ 14/ 19 1011.0          1
$$

ILZ025>027-034>036-040-047-049-050-058-095>099-220700-
WEST-CENTRAL ILLINOIS

CITY           SKY/WX    TMP DP  RH WIND       PRES   REMARKS
QUINCY         CLEAR     81  70  69 S8        29.82F HX  84
GALESBURG*     CLEAR     80  71  73 S5        29.80S HX  83
MACOMB*        CLEAR     83  69  61 SW10G16   29.82S HX  87
JACKSONVILLE*  CLEAR     83  69  63 S8        29.82F HX  86
PITTSFIELD*    CLEAR     82  71  68 S7        29.85F HX  87
$$

ILZ028>032-037-038-041>044-048-051>054-059>061-220700-
CENTRAL ILLINOIS

CITY           SKY/WX    TMP DP  RH WIND       PRES   REMARKS
PONTIAC        LGT RAIN  71  71  99 CALM      29.86F
BLOOMINGTON    CLOUDY    77  72  84 CALM      29.86S
DECATUR        MOCLDY    83  75  77 SW12      29.84F HX  90
PEORIA         CLOUDY    83  74  74 E6        29.82R HX  89
6HR MIN TEMP:  83; 6HR MAX TEMP:  90;

LACON*         MOCLDY    70  68  93 SE5       29.83S
LINCOLN*       CLOUDY    82  77  82 S5        29.81F HX  90
SPRINGFIELD    PTCLDY    85  75  72 SW9       29.83F HX  93
6HR MIN TEMP:  82; 6HR MAX TEMP:  93;

TAYLORVILLE    CLEAR     82  75  81 SW9       29.85F HX  88
6HR MIN TEMP:  81; 6HR MAX TEMP:  91;

$$

ILZ033-039-045-046-055>057-062-063-220700-
EAST-CENTRAL ILLINOIS

CITY           SKY/WX    TMP DP  RH WIND       PRES   REMARKS
CHAMPAIGN      MOCLDY    81  76  84 S12       29.84F HX  87
RANTOUL*       CLOUDY    83  79  88 S5        29.85S HX  93
MATTOON        CLOUDY    83  77  82 S6        29.87F HX  92
PARIS*         CLOUDY    79  77  93 S8        29.88F HX  84
$$

ILZ079-100>102-220700-
SOUTHWEST ILLINOIS

CITY           SKY/WX    TMP DP  RH WIND       PRES   REMARKS
ALTON          CLEAR     84  75  74 SW10      29.86F HX  92
BELLEVILLE     CLEAR     83  76  79 SW6       29.88F HX  90
CAHOKIA*       CLEAR     88  72  58 SW9       29.87F HX  94
SPARTA*        CLEAR     83  76  79 S8        29.92F HX  90
$$

ILZ064>066-069>071-074>076-080>082-084>086-088>090-092>094-220700-
SOUTH-CENTRAL ILLINOIS

CITY           SKY/WX    TMP DP  RH WIND       PRES   REMARKS
CARBONDALE     CLEAR     83  77  82 SW12      29.91F HX  92
6HR MIN TEMP:  79; 6HR MAX TEMP:  91; 6HR PCP: TRACE;

CAIRO*         CLEAR     83  76  81 SW6       29.93F HX  91
EFFINGHAM*     CLEAR     84  75  75 S9        29.89F HX  92
MARION         CLEAR     82  81  94 S8        29.92F HX  95
MT. VERNON     CLEAR     83  76  79 SW12      29.89  HX  91
CENTRALIA*     CLEAR     84  77  79 SW10      29.88F HX  94
SALEM*         CLEAR     85  75  73 SW8       29.88F HX  93
METROPOLIS*    CLEAR     82  76  81 SW5       29.95S HX  90
$$

ILZ067-068-072-073-078-083-087-091-220700-
SOUTHEAST ILLINOIS

CITY           SKY/WX    TMP DP  RH WIND       PRES   REMARKS
LAWRENCEVILLE  CLEAR     82  76  81 SW7       29.89F HX  89
FLORA*         CLEAR     83  76  80 SW7       29.88F HX  91
FAIRFIELD*     CLEAR     80  77  91 S3        29.88F HX  85
HARRISBURG*    CLEAR     78  76  94 CALM      29.92F HX  81
ROBINSON*      CLOUDY    81  76  85 SW7       29.89F HX  87
CARMI*         CLEAR     78  76  94 S6        29.90F HX  80
$$

ABBREVIATIONS USED IN REMARKS
   TC - TEMPERATURE IN CELSIUS
  WCI - WIND CHILL INDEX
   HX - HEAT INDEX
  VSB - VISIBILITY
$$





USA.gov is the U.S. government's official web portal to all federal, state and local government web resources and services.